To NAV CANADA Home Page Login to a new session Search on AWWS site Feedback and Comments Disclaimer Vers la page française équivalente Tips FAQ What's new on the site To the Forecasts and Observations / NOTAM section To "File a Flight Plan" website Publications and other links Update of the User's profile FIC Telephone Numbers My Weather Data Folder Route Weather Data Regional Weather Data Local Weather Data To the Forecasts and Observations / NOTAM section
Request Generated 08/29/2016 at 08:49:21 UTC . Weather information available at that time is displayed.

METAR/TAF

PAULATUK/PAULATUK (NORA ALIQATCHIALUK RUBEN)/NT    

LWIS CYPC 290800Z AUTO 33003KT 07/07 A3043=
LWIS CYPC 290700Z AUTO 34006KT 08/07 A3043=
LWIS CYPC 290600Z AUTO 25003KT 07/07 A3042=

*** REMARK        : Forecast period has ended; this was the last TAF issued
*** REMARQUE : La période de prévision est échue; ceci était le dernier TAF qui a été émis
TAF CYPC 281438Z 2815/2818 FCST NOT AVBL DUE NO OBS
RMK NXT FCST WILL BE ISSUED AT 291445Z=
Your time UTC time
Weather data provided by Environment Canada and NAV CANADA